Regional Weather Roundup
Issued by NWS

Current Version | Previous Version | Graphics & Text | Print | Product List | Glossary On
Versions: 1 2 3 4 5 6 7 8 9 10 11 12 13 14 15 16 17 18 19 20 21 22 23 24 25 26 27 28 29 30 31 32 33 34 35 36 37 38 39 40 41 42 43 44 45 46 47 48 49 50
217
ASHW40 PHFO 231743
RWRHI

WEATHER ROUNDUP FOR HAWAII
NATIONAL WEATHER SERVICE HONOLULU HI
700 AM HST TUE MAY 23 2017

THIS IS AN AUTOMATED REPORT THAT HAS NOT BEEN QUALITY CONTROLLED.

NOTE..."FAIR" INDICATES FEW OR NO CLOUDS BELOW 12,000 FEET WITH NO
SIGNIFICANT WEATHER AND/OR OBSTRUCTIONS TO VISIBILITY.

* - THESE SITES REPORT LIMITED FIELDS

HIZ001>004-231800-
KAUAI-NIIHAU-

CITY           SKY/WX    TMP DP  RH WIND       PRES   REMARKS
LIHUE APT      MOSUNNY   78  66  66 NE20      30.09R
PORT ALLEN*      N/A     75 N/A N/A E13         N/A
POIPU*           N/A     75 N/A N/A NE9G20      N/A
PRINCEVILLE*     N/A     72 N/A N/A SE3         N/A
KOKOLE POINT*  NOT AVBL
MOLOAA DAIRY*    N/A     75  66  73 E6G13       N/A
WAIMEA HTS*      N/A     75  59  57 E3G10       N/A
PUU OPAE*      NOT AVBL
PUU LUA*       NOT AVBL
MAKAHA RIDGE*    N/A     68  54  60 S2          N/A
$$

HIZ005>011-231800-
OAHU-

CITY           SKY/WX    TMP DP  RH WIND       PRES   REMARKS
HONOLULU       PTSUNNY   74  66  76 NE15      30.05R
KALAELOA       MOSUNNY   73  66  78 NE5       30.06R
KANEOHE MCB    PTSUNNY   77  69  76 E10G22    30.03R
WHEELER FIELD  PTSUNNY   70  68  94 NE7       30.06S
BELLOWS*         N/A    N/A N/A N/A E20G26      N/A
KAHUKU*          N/A    N/A N/A N/A E10G18      N/A
WHEELER*         N/A    N/A N/A N/A SE3         N/A
WAIANAE HARBOR   N/A    N/A N/A N/A E6          N/A
DILLINGHAM*      N/A     70  66  88 CALM        N/A
KAHUKU TRN*      N/A     81  75  83 W10G20      N/A
KAWAILOA*        N/A     70  64  83 E12G20      N/A
KII*             N/A     75  68  78 E20G25      N/A
MAKUA RANGE*     N/A     70  63  78 W3G16       N/A
OAHU FOREST NW   N/A     68  63  83 E20G36      N/A
SCHOFIELD BRK*   N/A     72  70  94 MISG        N/A
SCHOFIELD S*   NOT AVBL
WAIANAE VLY*     N/A    N/A N/A N/A SE5         N/A
KUAOKALA*        N/A     72  66  83 NE8G15      N/A
HONOULIUULI*   NOT AVBL
MOKUOLOE IS*   NOT AVBL
PALEHUA*         N/A     63  63 100 NE10G24     N/A
WAIAWA PHB*    NOT AVBL
$$

HIZ012>013-231800-
MOLOKAI-

CITY           SKY/WX    TMP DP  RH WIND       PRES   REMARKS
MOLOKAI AIRPT  MOSUNNY   73  68  84 NE13      30.06R
KALAUPAPA      NOT AVBL
MAKAPULAPAI*     N/A     73  66  78 E18G26      N/A
MOLOKAI 1*     NOT AVBL
PUU ALII*        N/A     57  57  99 N3G21       N/A
$$

HIZ016-231800-
KAHOOLAWE-

CITY           SKY/WX    TMP DP  RH WIND       PRES   REMARKS
KAHOOLAWE*     NOT AVBL
HAKIOAWA*        N/A     75  64  69 MISG      30.45R
HONOKANAIA*      N/A     75  63  66 NE9G28    29.97R
KANELOA*         N/A     72  63  73 E17G33    30.07R
KEALIALALO*    NOT AVBL
LUA MAKIKA*    NOT AVBL
$$

HIZ014>015-231800-
LANAI-

CITY           SKY/WX    TMP DP  RH WIND       PRES   REMARKS
LANAI CITY     FAIR      70  62  76 E9        30.08R
LANAI 1*       NOT AVBL
$$

HIZ017>028-231800-
MAUI-

CITY           SKY/WX    TMP DP  RH WIND       PRES   REMARKS
KAHULUI        MOSUNNY   72  66  81 NE9       30.04R
KAPALUA-W MAUI MOSUNNY   72  64  78 NE12      30.04
HANA AIRPORT   CLOUDY    77  66  69 NE10      30.10R
HANA*            N/A     75 N/A N/A E6          N/A
HALEAKALA SUMM   N/A     46   9  21 E24G38      N/A
MAALAEA BAY*     N/A     75 N/A N/A N20G30      N/A
HALEAKALA*     NOT AVBL
KAUPO GAP*     NOT AVBL
KULA 1*          N/A     46  41  81 E5          N/A
$$

HIZ023>026-231800-
BIG ISLAND OF HAWAII COAST AND LOWER SLOPES-

CITY           SKY/WX    TMP DP  RH WIND       PRES   REMARKS
KAILUA KONA    MOSUNNY   76  59  55 CALM      29.98R
HILO           MOSUNNY   68  63  84 SW8       30.05R
HONOKAA*         N/A     68 N/A N/A VRB1        N/A
KAWAIHAE MWT*    N/A     77 N/A N/A E14G23      N/A
KAWAIHAE*        N/A     79 N/A N/A SE12      29.99R
SOUTH POINT*     N/A     72 N/A N/A N13G21      N/A
UPOLU AIRPORT* NOT AVBL
KAMUELA*       NOT AVBL
HAKALAU*         N/A     52  38  59 W2G9        N/A
KALOKO-HONOKO* NOT AVBL
PALI 2*          N/A     64  48  55 S20G30      N/A
KEALAKOMO*       N/A     75  61  60 VRB18G30    N/A
KAUPULEHU*       N/A    N/A N/A N/A NW6G18      N/A
KAPAPALA*        N/A     59  45  59 N5          N/A
LOWER KAHUKU*    N/A     57  50  77 N2G9        N/A
PUHE CS*         N/A     75  54  46 E13G23      N/A
PUHO CS*         N/A     72  56  57 E2          N/A
PTA KEAMUKU*     N/A     63  46  55 CALM        N/A
WAIKOLOA*        N/A     75  52  43 S7G20       N/A
$$

HIZ027>028-231800-
BIG ISLAND OF HAWAII INTERIOR AND SUMMMITS-

CITY           SKY/WX    TMP DP  RH WIND       PRES   REMARKS
BRADSHAW FIELD SUNNY     53  27  36 N7        30.29R
MK VISITOR CEN   N/A     55 -17   5 E15         N/A
MAUNA KEA*       N/A     39 -17   9 NE14        N/A
MAUNA LOA*       N/A     46 -36   2 MISG        N/A
MAUNA LOA 1*   NOT AVBL
PTA KIPUKA*      N/A     55  50  82 SE3G10      N/A
PTA RANGE 17*    N/A    N/A N/A N/A E13G26      N/A
PTA WEST*        N/A     63  50  63 S8          N/A
NENE CABIN*      N/A     48  14  25 NE7G13      N/A
AHUMOA*          N/A     59  32  36 NE5         N/A
PTA PORTABLE*  NOT AVBL
PUU MALI*        N/A    N/A N/A N/A E21G30      N/A
$$

HIC003-231800-
NORTHWEST ISLANDS-

CITY           SKY/WX    TMP DP  RH WIND       PRES   REMARKS
MIDWAY ISLAND  NOT AVBL
MIDWAY NOS*      N/A     72 N/A N/A MISG      30.27R
FRENCH FRIGATE NOT AVBL
$$

PHZ110>124-180-231800-
BUOY REPORTS

STATION/POSITION TIME  TEMP    WIND        PRES    WAVE   SWELL
                       AIR SEA DIR/SP/G            HT/PER HT/DIR
                 (UTC) (F)     (DEG/KT/KT) (MB)    (FT/S) (FT/D)
BUOY 51001       1720   75 77   60/ 19/ 25 1020.8
BUOY 51101       1650   75 77   60/ 21/ 25 1020.5R  10/ 8   5/350
BUOY 51100       NOT AVBL
BUOY 51002       1720   75 78   50/ 21/ 25 1014.6
BUOY 51003       1650   78 79   40/ 19/ 21 1015.3R   8/ 8   5/110
BUOY 51004       1650      78   70/ 17/ 23 1014.6R   8/ 7   3/290
BARBERS PT BUOY  NOT AVBL
WAIMEA BAY BUOY  1702      78                N/A     7/11   3/340
KAILUA BAY BUOY  1704      79                N/A     8/11   3/350
LANAI BUOY       NOT AVBL
BARBERS PT 2     NOT AVBL
PAUWELA MAUI     1709      78                N/A     8/10   3/320
HILO             1612      78                N/A     7/12   3/350
KANEOHE BAY BUOY 1725      79                N/A     7/ 8   3/340
HANALEI KAUAI    1722      79                N/A     8/11   3/330
KAHULUI HARBOR   1712   76 79   40/  8/ 12 1017.6
HONOLULU HARBOR  1712   74 79  100/  3/  7 1018.3
KILO NALU        NOT AVBL
HILO HARBOR      1712   71 76  230/  4/  4 1017.5
MOKUOLOE         1636   76 79   70/ 13/ 17 1017.6R
NAWILIWILI       1712   76 81   50/ 12/ 16 1018.2
WHOTS BUOY       NOT AVBL
BUOY 51028       NOT AVBL
$$

......................KEY........................................
  SKY/WX - SKY CONDITIONS/PRESENT WEATHER
  TMP    - TEMPERATURE IN FAHRENHEIT
  DWPT   - DEWPOINT IN FAHRENHEIT
  RH     - RELATIVE HUMIDITY IN PERCENT
  WIND   - DIRECTION AND SPEED /MPH FOR ISLANDS...KTS FOR BUOYS/
  PRES   - MEAN SEA LEVEL PRESSURE IN INCHES OF HG
  VSB    - VISIBILITY IN MILES
  HX     - HEAT INDEX
  WCI    - WIND CHILL INDEX
  VRB    - VARIABLE WIND DIRECTION
  N/A    - NOT AVAILABLE




USA.gov is the U.S. government's official web portal to all federal, state and local government web resources and services.